TimeCDT,TemperatureF,Dew PointF,Humidity,Sea Level PressureIn,VisibilityMPH,Wind Direction,Wind SpeedMPH,Gust SpeedMPH,PrecipitationIn,Events,Conditions,WindDirDegrees,DateUTC
12:53 AM,57.0,54.0,89,30.10,10.0,South,4.6,-,N/A,,Clear,170,2012-09-16 05:53:00
1:53 AM,55.9,53.1,90,30.09,10.0,Calm,Calm,-,N/A,,Clear,0,2012-09-16 06:53:00
2:53 AM,54.0,53.1,97,30.07,10.0,Calm,Calm,-,N/A,,Clear,0,2012-09-16 07:53:00
3:53 AM,57.0,53.1,87,30.05,10.0,SW,10.4,-,N/A,,Clear,220,2012-09-16 08:53:00
4:53 AM,55.9,53.1,90,30.04,10.0,SW,11.5,-,N/A,,Clear,230,2012-09-16 09:53:00
5:53 AM,55.9,53.1,90,30.02,10.0,SW,10.4,-,N/A,,Clear,220,2012-09-16 10:53:00
7:53 AM,55.9,52.0,87,30.03,10.0,SW,10.4,-,N/A,,Clear,220,2012-09-16 12:53:00
8:53 AM,60.1,53.1,78,30.04,10.0,SW,10.4,-,N/A,,Clear,230,2012-09-16 13:53:00
9:53 AM,66.0,55.0,68,30.04,10.0,SW,9.2,-,N/A,,Clear,220,2012-09-16 14:53:00
10:53 AM,70.0,53.1,55,30.04,10.0,Calm,Calm,-,N/A,,Clear,0,2012-09-16 15:53:00
11:53 AM,73.0,52.0,48,30.02,10.0,WNW,6.9,-,N/A,,Clear,290,2012-09-16 16:53:00
12:53 PM,75.0,52.0,44,30.01,10.0,NW,4.6,-,N/A,,Clear,310,2012-09-16 17:53:00
1:53 PM,77.0,50.0,39,29.98,10.0,Calm,Calm,-,N/A,,Clear,0,2012-09-16 18:53:00
2:53 PM,78.1,48.0,35,29.94,10.0,Calm,Calm,-,N/A,,Clear,0,2012-09-16 19:53:00
3:53 PM,81.0,46.9,30,29.91,10.0,Variable,3.5,-,N/A,,Clear,0,2012-09-16 20:53:00
4:53 PM,81.0,48.0,31,29.89,10.0,West,4.6,-,N/A,,Clear,280,2012-09-16 21:53:00
5:53 PM,81.0,46.9,30,29.88,10.0,Calm,Calm,-,N/A,,Clear,0,2012-09-16 22:53:00
6:53 PM,81.0,45.0,28,29.88,10.0,NNE,4.6,-,N/A,,Clear,20,2012-09-16 23:53:00
7:53 PM,75.0,48.9,40,29.89,10.0,NE,4.6,-,N/A,,Clear,50,2012-09-17 00:53:00
8:53 PM,71.1,51.1,49,29.90,10.0,Calm,Calm,-,N/A,,Clear,0,2012-09-17 01:53:00
9:53 PM,71.1,48.9,45,29.91,10.0,ESE,4.6,-,N/A,,Clear,120,2012-09-17 02:53:00
10:53 PM,69.1,52.0,54,29.90,10.0,SE,8.1,-,N/A,,Clear,140,2012-09-17 03:53:00
11:53 PM,64.9,52.0,63,29.90,10.0,SSE,9.2,-,N/A,,Clear,160,2012-09-17 04:53:00